Orbital Elements at Epoch 2459000.5 (2020-May-31.0) TDB
Reference: JPL 24 (heliocentric ecliptic J2000)
Element | Value | Uncertainty (1-sigma) | Units |
e | .03081604070464156 | 3.4734e-08 | |
a | 2.677703397875241 | 1.1949e-08 | au |
q | 2.595187180971361 | 9.7512e-08 | au |
i | 3.912054303475457 | 3.9412e-06 | deg |
node | 323.3635428001247 | 6.0637e-05 | deg |
peri | 135.9974086921547 | 9.4008e-05 | deg |
M | 265.5427850417079 | 7.2055e-05 | deg |
tp | 2459420.427935693865 (2021-Jul-24.92793569) | 0.00032068 | TDB |
period | 1600.450075905189 4.38 | 1.0713e-05 2.933e-08 | d yr |
n | .2249367258746823 | 1.5057e-09 | deg/d |
Q | 2.760219614779122 | 1.2317e-08 | au |
|
| | Orbit Determination Parameters
Additional Information
|